Temperature
20 20 19 19 19 19 19 19 19 19 19 19 19 19 19 19 19 19 19 19 19 19 19 19 19 19 19 19 19 20 20 20 20 20 19 19 19 19 19 19 19 19 19
21 20 20 19 19 19 19 19 19 20 20 19 19 19 19 19 19 19 19 19 19 19 19 19 19 19 19 19 19 19 20 20 19 19 19 19 19 19 19 19 19 19 19
21 20 20 19 19 19 19 19 20 20 19 19 19 19 19 19 19 19 19 19 19 19 19 19 19 19 19 19 19 19 19 19 19 19 19 19 19 19 19 19 19 19 19
21 20 20 20 20 20 20 20 20 20 20 20 19 19 19 20 20 19 19 19 19 19 19 19 19 19 19 19 19 19 19 19 19 19 19 19 19 19 19 19 19 19 19
20 20 20 20 20 20 20 20 20 20 20 20 20 20 20 20 20 20 19 19 19 19 19 19 19 18 18 19 19 19 19 19 19 19 19 19 19 19 19 19 19 19 18
20 20 20 20 20 20 20 20 20 20 20 20 20 20 20 20 20 20 19 19 19 19 19 19 18 18 18 18 18 18 18 18 18 18 18 18 18 18 18 18 18 18 18
21 20 20 20 20 20 20 20 20 20 20 20 20 20 20 20 20 19 19 19 19 19 19 19 18 18 18 18 18 18 18 18 18 18 18 18 18 18 18 18 18 18 18
21 21 20 20 20 20 20 20 20 20 19 19 19 19 19 19 19 19 19 19 19 19 19 18 18 18 18 18 18 18 18 18 18 18 18 18 18 18 18 18 18 18 18
21 21 21 21 20 20 20 20 20 20 20 19 19 19 19 19 19 19 19 19 19 19 18 18 18 18 18 18 18 18 18 18 18 18 18 18 18 18 18 18 18 18 18
21 21 21 21 21 20 20 20 20 20 19 19 19 19 19 19 19 19 19 19 19 19 18 18 18 18 18 18 18 18 18 18 18 18 18 18 18 18 18 18 18 18 18
21 21 21 21 21 20 20 20 20 19 19 19 19 19 19 19 19 19 19 19 19 19 18 18 18 18 18 18 18 18 18 18 18 18 18 18 18 18 18 18 18 18 18
21 21 21 21 20 20 20 20 19 19 19 19 19 19 19 19 19 19 19 19 19 19 18 18 18 18 18 18 18 18 18 18 18 18 18 18 18 18 18 18 18 18 18
21 20 20 20 20 20 20 20 19 19 19 19 19 19 19 19 19 19 19 19 19 19 19 18 18 18 18 18 18 18 18 18 18 18 18 17 17 18 18 18 18 18 18
20 20 20 20 20 20 20 20 19 19 19 19 19 19 19 19 19 19 19 19 19 19 19 18 18 18 18 18 18 18 18 18 18 18 17 17 17 17 18 18 18 18 18
19 20 20 20 20 20 19 19 19 19 19 19 19 19 19 19 19 19 19 19 19 19 19 18 18 18 18 18 18 18 18 18 18 17 17 17 17 17 17 17 18 18 18
18 19 19 20 20 20 20 20 19 19 19 19 19 19 19 19 19 19 18 18 19 19 19 18 18 18 18 18 18 18 18 18 18 17 17 17 17 17 17 17 17 17 17
17 18 18 19 19 19 19 19 19 19 19 19 19 19 19 19 19 19 18 18 18 18 18 18 18 18 18 18 18 18 18 18 17 17 17 17 17 17 17 17 17 17 17
17 17 18 18 18 19 19 19 19 19 19 19 19 19 19 19 19 18 18 18 18 18 18 18 18 18 18 18 18 18 18 17 17 17 17 17 17 17 17 17 17 17 17
17 17 17 18 18 18 19 19 19 19 19 19 19 19 19 19 18 18 18 18 18 18 18 18 18 18 18 18 18 18 17 17 17 17 17 17 17 17 17 17 17 17 17
16 17 17 17 18 18 18 18 19 19 20 19 19 19 19 19 18 18 18 18 18 18 18 18 18 18 18 18 18 17 17 17 17 17 17 17 17 17 17 17 17 17 17
16 16 17 17 17 18 18 18 18 19 19 19 19 19 19 19 19 18 18 18 18 18 18 18 18 18 18 17 17 17 17 17 17 17 17 17 17 17 17 17 17 17 17
15 16 16 16 16 17 17 17 17 18 19 19 19 19 19 19 19 18 18 18 18 18 17 17 17 17 17 17 17 17 17 17 17 17 17 17 17 17 17 17 17 17 17
14 15 15 15 16 16 16 16 17 17 18 18 19 19 19 19 19 19 18 18 18 17 17 17 17 17 17 17 17 17 17 17 17 17 17 17 17 17 17 17 17 17 17
13 14 14 14 15 15 15 15 15 16 16 17 18 18 19 19 19 18 18 18 18 17 17 17 17 17 16 17 17 17 17 17 17 17 17 17 17 17 17 17 17 17 17
12 13 13 13 14 14 14 14 14 15 15 16 17 17 18 18 18 18 18 18 17 17 17 17 16 16 16 16 16 16 16 16 16 16 17 17 17 17 17 17 17 17 17
12 12 13 13 13 13 13 14 14 14 14 15 15 16 16 17 17 17 17 17 17 17 16 16 16 16 15 15 15 15 15 15 16 16 16 16 16 16 16 16 16 16 16
Wind_Speed
5 7 11 11 11 11 11 11 11 11 12 13 13 13 13 13 12 11 10 9 8 8 8 8 8 8 8 9 9 10 11 11 12 12 12 12 12 12 11 11 10 9 10
8 10 13 12 11 11 11 10 10 10 11 11 11 12 12 12 11 11 10 9 8 8 8 8 8 9 9 9 9 10 11 11 11 11 12 12 12 12 11 11 10 9 10
11 11 13 13 12 12 11 10 10 10 10 10 10 10 10 10 10 10 10 9 8 8 7 7 8 8 9 9 9 9 9 9 10 10 10 9 10 11 11 11 10 10 9
11 12 13 14 13 12 11 10 9 9 9 9 9 9 9 9 9 8 8 8 8 8 7 7 7 8 8 8 8 9 9 8 9 8 7 7 8 10 10 10 10 10 9
10 12 13 15 13 12 11 10 9 9 9 9 9 8 8 8 8 7 7 7 7 7 7 7 7 7 7 7 7 8 8 8 8 8 7 7 7 9 9 9 9 8 8
8 11 13 15 14 13 11 11 10 9 9 8 8 8 7 7 7 7 7 6 6 6 6 6 6 6 6 6 6 7 7 7 8 7 6 5 5 7 8 8 7 7 7
9 11 13 16 15 14 12 11 10 9 9 8 8 8 7 6 6 6 6 6 5 5 5 5 5 5 5 5 5 6 6 6 7 6 4 3 3 6 7 7 7 6 7
11 11 13 17 16 15 14 13 11 11 10 9 8 8 7 6 6 5 5 5 4 4 4 4 4 4 4 5 5 5 5 5 5 4 3 2 2 4 6 6 6 6 6
8 8 10 14 16 16 15 14 13 12 11 10 9 8 7 6 6 5 4 4 3 2 3 3 4 4 4 4 5 4 4 5 5 3 2 1 2 3 5 5 5 6 6
6 6 7 10 12 13 14 15 14 14 13 12 11 10 9 8 7 7 5 4 3 2 1 2 2 3 3 4 4 4 4 4 3 3 1 0 1 3 4 5 5 6 6
8 6 6 7 9 11 12 14 15 15 14 14 12 12 10 8 7 7 6 5 4 3 2 1 1 2 3 5 5 4 4 2 3 3 2 2 1 2 3 4 5 5 5
10 9 7 7 7 9 11 11 11 12 12 13 11 11 10 8 7 6 7 7 6 5 4 3 2 1 4 4 4 3 2 1 2 3 3 3 2 1 2 3 4 4 5
7 8 9 8 7 7 7 7 8 9 10 11 12 11 10 8 7 6 5 6 6 5 3 2 2 2 2 1 2 2 1 1 3 4 4 4 3 2 2 2 3 3 3
3 5 6 8 6 7 8 6 6 6 7 8 11 12 10 6 5 6 5 6 5 4 4 3 3 2 2 2 3 3 2 2 3 4 4 4 3 3 3 3 3 3 3
7 5 4 5 7 7 6 6 6 7 8 9 10 12 12 7 4 5 5 6 7 7 5 4 4 3 3 3 4 4 5 4 4 4 4 4 3 3 3 3 4 4 3
10 9 7 4 4 6 7 7 5 8 10 10 11 12 14 11 7 5 4 5 6 8 8 6 4 3 2 2 4 5 6 7 6 5 4 4 4 4 3 3 4 4 4
10 10 9 7 5 4 6 8 7 8 9 9 11 14 15 14 11 7 5 5 6 9 8 5 4 3 3 3 3 4 5 7 6 6 5 5 4 4 3 3 3 3 4
11 11 11 9 8 6 5 6 6 8 9 9 11 13 15 16 14 9 6 7 8 7 5 4 3 3 3 3 3 2 3 4 5 6 6 6 5 4 3 3 2 2 3
11 10 11 10 10 9 7 6 6 6 7 9 10 11 13 15 15 11 7 7 8 5 4 5 4 4 4 4 4 3 2 3 3 5 5 7 7 6 4 3 2 2 2
9 9 9 10 10 10 7 6 4 5 7 7 9 11 13 13 14 11 7 6 6 5 5 5 4 4 3 4 3 2 1 2 3 4 5 6 7 7 6 4 3 3 2
10 10 9 10 10 9 6 5 5 4 5 6 8 11 12 12 12 9 6 5 5 6 6 6 4 5 3 3 3 1 1 2 3 4 4 4 5 7 7 7 5 4 3
11 10 9 9 10 9 7 6 5 6 6 6 6 7 11 12 11 9 8 6 5 4 4 5 4 3 3 4 4 3 1 2 3 3 3 4 5 5 6 8 7 7 6
11 11 11 11 10 10 9 7 6 5 4 3 5 6 8 11 12 11 10 9 7 6 6 6 5 5 4 3 2 4 4 5 3 2 2 3 3 4 4 6 8 9 8
11 10 10 10 10 10 9 8 8 6 6 5 4 4 5 6 8 10 9 10 9 8 8 8 7 5 4 3 2 1 1 3 3 1 2 1 2 4 4 4 6 9 10
11 10 9 9 9 9 9 8 7 6 6 5 4 3 3 3 4 5 7 8 9 8 8 7 7 6 5 4 3 2 2 1 1 2 2 2 2 2 3 4 5 7 10
10 9 9 9 9 9 9 8 7 7 7 5 3 1 1 1 1 3 4 6 7 7 8 8 8 8 6 5 4 4 4 3 4 4 4 3 2 2 2 3 4 6 9
Wind_Direction
172 172 167 155 149 142 135 129 124 122 122 123 124 126 128 129 130 132 135 139 142 144 147 143 136 131 127 120 115 109 104 99 96 92 89 90 94 96 96 97 96 97 99
150 163 163 157 153 148 143 138 135 132 128 126 126 128 129 130 130 130 130 131 133 136 138 140 137 135 128 120 114 109 105 101 98 93 87 86 91 94 96 98 99 102 103
144 156 159 158 157 154 151 148 145 139 133 130 129 129 129 129 128 128 127 127 128 128 131 135 135 131 125 120 115 108 105 104 101 98 90 82 87 92 94 96 97 101 107
146 151 157 160 161 160 159 158 153 146 140 135 132 130 128 127 126 125 124 123 123 124 125 129 129 126 122 119 114 108 104 108 109 106 92 82 87 92 92 94 96 100 104
147 150 161 164 165 166 168 166 160 157 150 145 140 135 130 127 124 123 120 118 118 118 120 122 125 125 123 120 113 106 104 109 113 108 96 85 86 95 91 89 91 100 104
146 153 167 167 170 173 175 173 169 167 162 156 151 145 139 133 129 126 121 115 112 113 114 118 122 125 125 119 108 99 96 106 112 111 103 96 93 100 97 90 88 92 100
154 161 173 173 176 179 181 179 178 177 172 167 162 158 153 146 138 131 125 116 108 105 104 106 115 121 118 109 99 91 89 107 115 113 106 99 103 103 100 95 91 86 88
164 168 178 180 182 184 186 186 186 186 182 178 174 172 170 163 154 146 138 126 113 99 91 86 89 102 102 95 91 86 82 100 113 108 105 100 108 99 97 95 97 91 85
171 174 182 185 187 190 192 192 193 193 191 189 187 189 188 184 178 172 166 153 138 112 89 76 70 78 86 87 88 88 89 99 118 109 99 83 87 92 92 95 100 101 95
183 191 193 192 190 194 197 199 199 199 198 197 197 200 202 203 202 197 191 189 191 183 138 76 60 63 70 74 75 82 90 100 129 141 134 179 114 98 94 94 101 105 102
198 205 205 203 200 199 201 207 205 205 204 203 204 207 206 209 215 213 205 210 222 229 235 249 9 39 55 51 47 62 80 106 150 180 209 233 180 123 108 101 102 107 110
207 208 209 211 208 204 208 213 212 208 207 205 205 208 204 202 211 215 217 225 232 238 247 255 271 5 51 42 27 39 55 131 186 213 236 253 243 193 147 125 113 111 114
222 218 212 213 215 211 216 216 211 209 206 205 203 204 200 199 209 215 216 236 249 250 251 280 326 22 36 14 346 347 339 230 232 239 255 270 264 250 209 178 154 138 132
278 251 235 215 211 215 218 221 213 210 208 207 206 203 195 194 202 208 212 221 231 234 232 243 252 263 271 275 274 282 282 254 237 239 260 282 278 265 243 218 199 181 167
357 335 300 241 220 215 214 221 216 215 217 215 210 207 201 198 200 207 214 219 224 224 222 230 239 245 247 247 249 243 244 238 229 236 260 280 279 274 261 234 219 206 195
8 357 346 317 251 223 219 222 221 218 217 214 214 213 208 207 207 205 213 218 223 221 221 222 232 244 253 247 248 237 228 223 222 230 250 272 276 274 278 265 239 223 211
3 359 357 349 345 283 240 231 229 224 219 216 218 215 212 211 210 209 214 222 224 220 215 215 226 239 253 245 242 223 210 209 212 221 237 257 268 269 267 271 262 243 231
1 0 359 1 354 338 298 256 242 227 218 220 219 215 213 213 212 208 214 226 223 206 196 197 201 218 238 228 216 207 195 198 212 219 232 246 252 256 262 268 272 261 246
356 353 352 352 350 340 321 283 252 234 222 222 220 215 215 214 211 209 215 222 213 195 192 207 193 190 208 211 202 194 196 205 213 220 230 239 243 246 252 267 271 259 245
348 347 347 346 343 336 326 309 281 250 231 221 219 217 210 211 210 208 215 219 211 204 204 200 198 192 197 191 184 167 218 230 218 223 231 235 240 242 243 248 257 262 251
346 347 344 344 339 339 334 327 310 280 253 231 224 218 207 204 203 200 209 209 207 218 222 204 189 190 188 146 119 104 307 257 232 232 225 228 238 238 235 236 237 244 251
340 339 338 337 333 331 323 311 290 285 271 247 231 217 208 200 192 195 192 193 192 208 222 202 182 176 171 159 148 142 224 303 267 228 225 226 233 226 228 231 230 232 237
333 334 335 330 329 327 323 314 308 296 286 269 238 223 214 202 191 188 187 182 178 183 200 198 187 182 179 179 164 154 165 215 257 285 245 233 221 213 225 227 229 232 232
322 325 325 325 327 326 324 322 318 308 295 284 273 248 227 209 195 189 181 179 177 181 189 193 183 182 170 175 186 159 153 153 161 274 303 282 247 227 228 226 230 231 230
318 321 321 324 327 328 330 330 324 313 301 296 281 251 235 216 205 194 188 183 181 183 184 182 176 182 182 180 181 168 152 121 139 169 253 300 312 265 242 232 231 232 230
321 323 326 330 331 334 339 342 342 337 331 327 322 296 244 178 161 170 176 181 184 184 183 183 180 183 187 186 188 187 180 178 187 184 211 236 262 287 279 250 236 236 233
Height
1530 1533 1535 1538 1540 1541 1543 1544 1545 1546 1547 1548 1549 1550 1551 1552 1552 1553 1554 1555 1556 1557 1558 1558 1559 1559 1560 1560 1561 1561 1562 1562 1562 1562 1561 1561 1561 1561 1560 1560 1560 1560 1560
1531 1533 1536 1538 1540 1542 1544 1545 1546 1547 1548 1549 1550 1551 1551 1552 1553 1554 1555 1556 1557 1557 1558 1558 1559 1560 1560 1561 1561 1562 1563 1563 1563 1563 1563 1563 1562 1562 1562 1561 1561 1561 1561
1532 1534 1537 1539 1541 1543 1545 1546 1547 1548 1549 1550 1550 1551 1552 1553 1554 1554 1555 1556 1557 1557 1558 1559 1560 1560 1561 1562 1562 1563 1564 1564 1564 1564 1564 1564 1564 1563 1563 1563 1563 1562 1562
1533 1535 1538 1540 1542 1544 1545 1547 1548 1549 1550 1550 1551 1552 1552 1553 1554 1555 1555 1556 1557 1558 1558 1559 1560 1561 1562 1562 1563 1564 1564 1565 1565 1565 1565 1565 1565 1565 1564 1564 1564 1564 1564
1534 1537 1539 1541 1543 1544 1546 1547 1548 1549 1550 1551 1551 1552 1553 1554 1554 1555 1556 1556 1557 1557 1558 1559 1560 1561 1562 1563 1564 1564 1565 1566 1566 1566 1566 1566 1566 1566 1565 1565 1565 1565 1565
1535 1537 1540 1542 1543 1545 1546 1547 1548 1549 1550 1551 1552 1553 1553 1554 1555 1555 1556 1556 1557 1557 1558 1559 1560 1561 1562 1563 1564 1565 1566 1566 1567 1567 1567 1567 1566 1566 1566 1566 1566 1566 1566
1536 1538 1540 1542 1543 1545 1546 1547 1548 1549 1550 1551 1552 1553 1554 1555 1555 1555 1556 1556 1557 1558 1558 1559 1560 1561 1562 1563 1564 1565 1566 1567 1567 1567 1567 1567 1567 1567 1567 1567 1567 1567 1567
1537 1539 1541 1542 1544 1545 1546 1547 1548 1549 1550 1551 1552 1553 1554 1555 1555 1556 1556 1557 1557 1558 1558 1559 1560 1561 1562 1563 1564 1565 1566 1567 1568 1568 1568 1568 1568 1568 1568 1568 1568 1568 1568
1538 1540 1541 1543 1544 1545 1546 1547 1548 1549 1550 1551 1552 1553 1554 1555 1555 1556 1556 1557 1557 1558 1559 1559 1560 1561 1562 1563 1564 1565 1566 1567 1568 1568 1568 1568 1568 1568 1568 1568 1568 1568 1569
1539 1540 1542 1543 1544 1545 1546 1547 1548 1549 1550 1551 1552 1553 1553 1554 1555 1555 1556 1556 1557 1558 1559 1559 1560 1561 1562 1563 1564 1565 1566 1567 1568 1569 1569 1569 1569 1568 1568 1568 1568 1569 1569
1539 1540 1541 1542 1544 1545 1545 1546 1547 1548 1549 1550 1551 1552 1553 1553 1554 1555 1555 1556 1557 1557 1558 1559 1560 1561 1562 1562 1563 1565 1566 1567 1568 1569 1569 1569 1568 1568 1568 1568 1568 1569 1569
1539 1540 1541 1542 1543 1544 1545 1545 1546 1547 1548 1549 1550 1551 1552 1553 1553 1554 1555 1555 1556 1557 1558 1559 1560 1560 1561 1562 1564 1565 1566 1567 1568 1568 1568 1568 1567 1567 1567 1567 1568 1568 1569
1541 1541 1542 1542 1543 1544 1544 1545 1545 1546 1547 1547 1548 1549 1550 1551 1552 1553 1554 1554 1555 1556 1557 1558 1559 1560 1561 1562 1563 1565 1566 1567 1567 1567 1567 1567 1566 1566 1566 1566 1567 1567 1568
1541 1541 1542 1542 1543 1543 1544 1544 1544 1545 1545 1546 1547 1548 1549 1550 1551 1552 1553 1553 1554 1555 1556 1557 1559 1560 1561 1562 1563 1565 1566 1567 1567 1567 1566 1566 1565 1565 1565 1565 1566 1567 1568
1539 1540 1540 1541 1541 1542 1542 1543 1543 1543 1544 1544 1545 1546 1547 1548 1549 1550 1551 1552 1552 1553 1555 1556 1558 1559 1561 1562 1563 1564 1565 1566 1566 1566 1566 1565 1565 1564 1564 1564 1565 1566 1567
1538 1537 1537 1538 1538 1539 1540 1540 1541 1541 1542 1542 1542 1543 1544 1546 1547 1549 1550 1551 1551 1552 1554 1555 1557 1558 1560 1561 1562 1563 1564 1565 1566 1566 1565 1565 1565 1564 1564 1564 1564 1565 1566
1537 1536 1534 1534 1534 1534 1535 1537 1537 1538 1539 1540 1540 1541 1541 1543 1544 1546 1548 1549 1550 1551 1552 1554 1556 1557 1559 1560 1561 1562 1563 1564 1564 1565 1565 1565 1565 1564 1564 1564 1564 1564 1565
1537 1535 1533 1532 1531 1530 1530 1531 1532 1533 1535 1536 1537 1538 1538 1539 1541 1543 1545 1546 1548 1549 1550 1552 1554 1555 1557 1558 1559 1561 1562 1562 1563 1563 1564 1564 1564 1565 1564 1564 1564 1564 1564
1537 1534 1532 1530 1528 1527 1526 1526 1527 1528 1529 1530 1532 1533 1534 1535 1537 1539 1541 1543 1545 1547 1548 1550 1551 1553 1555 1556 1558 1559 1560 1560 1561 1562 1562 1563 1564 1564 1564 1564 1564 1564 1564
1537 1534 1531 1529 1526 1524 1523 1522 1522 1522 1523 1524 1526 1527 1529 1531 1532 1534 1536 1539 1541 1543 1544 1546 1548 1550 1552 1554 1555 1556 1557 1558 1559 1560 1561 1562 1562 1563 1564 1564 1564 1564 1564
1535 1532 1529 1526 1523 1521 1519 1518 1517 1516 1517 1518 1520 1521 1524 1525 1527 1529 1531 1533 1536 1538 1540 1542 1544 1546 1549 1551 1552 1553 1554 1555 1556 1557 1558 1559 1561 1561 1562 1563 1563 1563 1563
1533 1530 1526 1523 1520 1518 1515 1513 1512 1511 1511 1511 1513 1514 1517 1519 1521 1523 1525 1527 1530 1533 1535 1537 1539 1542 1545 1547 1549 1550 1551 1553 1552 1554 1555 1556 1558 1559 1560 1561 1562 1562 1563
1531 1527 1523 1520 1517 1514 1512 1509 1508 1506 1506 1506 1507 1508 1510 1512 1515 1517 1519 1521 1524 1526 1529 1532 1535 1537 1540 1543 1545 1547 1548 1548 1549 1550 1551 1552 1554 1556 1557 1558 1559 1560 1561
1529 1525 1521 1517 1514 1511 1508 1506 1504 1502 1501 1501 1502 1502 1504 1506 1508 1511 1513 1515 1518 1520 1523 1525 1528 1532 1535 1537 1540 1542 1544 1545 1546 1546 1548 1548 1550 1552 1554 1555 1557 1558 1559
1526 1522 1519 1515 1512 1509 1506 1503 1501 1499 1498 1497 1497 1498 1499 1500 1503 1505 1507 1510 1512 1515 1517 1520 1522 1526 1529 1532 1535 1537 1539 1541 1542 1544 1544 1545 1547 1548 1550 1552 1553 1554 1556
1524 1520 1516 1513 1510 1507 1504 1502 1499 1497 1496 1495 1494 1494 1495 1497 1498 1500 1503 1505 1508 1510 1512 1515 1517 1521 1523 1526 1529 1531 1534 1536 1537 1539 1540 1542 1543 1545 1547 1548 1550 1551 1552